GW0115 Weather Reports


Display with metric or nautical units.
time (UTC)temp
F
wind
direction
speed
MPH
gust
MPH
rain 1hr
in
rain 24hr
in
rain mn
in
humidity
%
barometer
mb
20260901234604 68 0 0.0 0.0 0.00 0.35 0.35 92 1017.1
20260901233058 68 0 0.0 0.0 0.00 0.35 0.35 91 1017.0
20260901231602 68 0 0.0 0.0 0.00 0.35 0.35 91 1016.7
20260901230111 69 0 0.0 0.0 0.00 0.35 0.35 89 1016.7
20260901224600 69 0 0.0 0.0 0.00 0.35 0.35 88 1016.4
20260901223055 69 0 0.0 0.0 0.00 0.35 0.35 90 1016.4
20260901221607 70 0 0.0 0.0 0.00 0.35 0.35 89 1016.3
20260901220100 70 0 0.0 0.0 0.00 0.35 0.35 89 1016.4
20260901214555 70 0 0.0 0.0 0.00 0.35 0.35 88 1016.5
20260901213056 71 0 0.0 0.0 0.00 0.35 0.35 90 1016.4
20260901211600 70 0 0.0 0.0 0.00 0.35 0.35 89 1016.5
20260901210057 70 0 0.0 0.0 0.00 0.35 0.35 86 1016.2
20260901204553 71 0 0.0 0.0 0.00 0.35 0.35 85 1016.0
20260901203102 72 0 0.0 0.0 0.00 0.35 0.35 86 1016.0
20260901201603 72 0 0.0 0.0 0.00 0.35 0.35 88 1016.1
20260901200100 71 0 0.0 0.0 0.00 0.35 0.35 87 1016.2
20260901194607 71 0 0.0 0.0 0.00 0.35 0.35 87 1016.2
20260901193059 70 0 0.0 0.0 0.00 0.35 0.35 89 1016.0
20260901191553 70 0 0.0 0.0 0.00 0.35 0.35 92 1016.1
20260901190059 69 0 0.0 0.0 0.00 0.35 0.35 92 1016.3
20260901184607 69 0 0.0 0.0 0.00 0.35 0.35 93 1016.6
20260901183118 69 0 0.0 0.0 0.00 0.35 0.35 92 1016.3
20260901181552 68 0 0.0 0.0 0.00 0.35 0.35 93 1016.3
20260901174555 67 0 0.0 0.0 0.00 0.35 0.35 94 1016.4
20260901173124 68 0 0.0 0.0 0.00 0.35 0.35 94 1016.4
20260901171602 68 0 0.0 0.0 0.00 0.35 0.35 96 1016.4
20260901164557 66 0 0.0 0.0 0.00 0.35 0.35 96 1016.4
20260901163118 66 0 0.0 0.0 0.00 0.35 0.35 97 1016.5
20260901161607 65 0 0.0 0.0 0.00 0.35 0.35 97 1016.6
20260901160056 65 0 0.0 0.0 0.00 0.35 0.35 96 1016.6
20260901154559 64 0 0.0 0.0 0.01 0.35 0.35 96 1016.6
20260901153056 64 0 0.0 3.0 0.01 0.35 0.35 96 1016.5
20260901151558 64 0 0.0 0.0 0.03 0.35 0.35 96 1016.3
20260901150059 64 0 0.0 3.0 0.03 0.35 0.35 96 1016.0
20260901144556 64 0 0.0 0.0 0.02 0.34 0.34 96 1016.0
20260901143105 64 0 0.0 0.0 0.02 0.33 0.33 96 1016.2
20260901141614 65 0 0.0 0.0 0.01 0.32 0.32 96 1016.2
20260901140105 65 0 0.0 0.0 0.02 0.32 0.32 97 1016.2
20260901134605 64 0 0.0 0.0 0.02 0.32 0.32 96 1015.9
20260901133125 64 0 0.0 0.0 0.02 0.31 0.31 96 1016.1
20260901131604 64 0 0.0 0.0 0.02 0.31 0.31 96 1016.1
20260901130118 64 0 0.0 0.0 0.01 0.30 0.30 96 1016.4
20260901124602 63 0 0.0 0.0 0.02 0.30 0.30 96 1016.7
20260901123101 63 0 0.0 0.0 0.02 0.29 0.29 96 1016.9
20260901121604 63 0 0.0 0.0 0.06 0.29 0.29 95 1016.8
20260901120107 63 0 0.0 0.0 0.08 0.29 0.29 95 1016.9
20260901114603 64 0 0.0 0.0 0.11 0.28 0.28 95 1016.7
20260901113102 64 0 0.0 0.0 0.13 0.27 0.27 95 1016.8
20260901111559 64 0 0.0 0.0 0.10 0.23 0.23 95 1016.8
20260901110055 64 0 0.0 0.0 0.09 0.21 0.21 95 1016.6
20260901104602 64 0 0.0 0.0 0.09 0.17 0.17 94 1016.7
20260901103100 64 0 0.0 0.0 0.12 0.14 0.14 94 1016.2
20260901101606 65 0 0.0 0.0 0.13 0.13 0.13 93 1016.0
20260901100105 65 0 0.0 0.0 0.12 0.12 0.12 93 1016.1
20260901094600 65 0 0.0 0.0 0.08 0.08 0.08 92 1016.4
20260901093058 66 0 0.0 0.0 0.02 0.02 0.02 90 1016.5
20260901091556 66 0 0.0 0.0 0.00 0.00 0.00 89 1016.3
20260901090101 66 0 0.0 0.0 0.00 0.00 0.00 89 1016.3
20260901084622 66 0 0.0 0.0 0.00 0.00 0.00 87 1016.2
20260901083058 66 0 0.0 0.0 0.00 0.00 0.00 88 1016.3
20260901081556 66 0 0.0 0.0 0.00 0.00 0.00 88 1016.4
20260901080115 66 0 0.0 0.0 0.00 0.00 0.00 88 1016.4
20260901074623 66 0 0.0 0.0 0.00 0.00 0.00 89 1016.6
20260901073056 66 0 0.0 0.0 0.00 0.00 0.00 89 1016.7
20260901071607 66 0 0.0 0.0 0.00 0.00 0.00 88 1016.6
20260901070052 66 0 0.0 0.0 0.00 0.00 0.00 88 1016.4
20260901064559 66 0 0.0 0.0 0.00 0.00 0.00 88 1016.5
20260901063108 66 0 0.0 0.0 0.00 0.00 0.00 88 1016.6
20260901061603 66 0 0.0 0.0 0.00 0.00 0.00 88 1016.8
20260901054602 67 0 0.0 0.0 0.00 0.00 0.00 87 1017.0
20260901053107 67 0 0.0 0.0 0.00 0.00 0.00 87 1017.2
20260901051614 67 0 0.0 0.0 0.00 0.00 0.00 87 1017.2
20260901050108 67 0 0.0 0.0 0.00 0.00 0.00 87 1017.3
20260901044605 67 0 0.0 0.0 0.00 0.00 0.00 87 1017.6
20260901043109 67 0 0.0 0.0 0.00 0.00 0.00 87 1017.6
20260901041622 67 0 0.0 0.0 0.00 0.00 0.00 87 1017.5
20260901040136 67 0 0.0 0.0 0.00 0.00 0.00 87 1017.4
20260901034558 67 0 0.0 0.0 0.00 0.00 0.00 86 1017.2
20260901033057 67 0 0.0 0.0 0.00 0.00 0.00 86 1017.3
20260901031601 68 0 0.0 0.0 0.00 0.00 0.00 85 1017.2
20260901030107 68 0 0.0 0.0 0.00 0.00 0.00 85 1017.4
20260901024557 68 0 0.0 0.0 0.00 0.00 0.00 84 1017.5
20260901023106 69 0 0.0 0.0 0.00 0.00 0.00 83 1017.7
20260901021603 69 0 0.0 0.0 0.00 0.00 0.00 82 1017.6
20260901020100 69 0 0.0 4.0 0.00 0.00 0.00 81 1017.6
20260901014609 69 0 0.0 0.0 0.00 0.00 0.00 81 1017.4
20260901013105 70 0 0.0 0.0 0.00 0.00 0.00 80 1017.2
20260901011556 71 0 0.0 0.0 0.00 0.00 0.00 80 1017.3
20260901010116 71 0 0.0 1.0 0.00 0.00 0.00 79 1017.4
20260901004600 71 0 0.0 3.0 0.00 0.00 0.00 80 1017.4
20260901003105 71 0 0.0 3.0 0.00 0.00 0.00 81 1017.4
20260901001557 70 0 0.0 0.0 0.00 0.00 0.00 80 1017.2
20260901000056 71 0 0.0 0.0 0.00 0.00 0.00 77 1017.3